| time (UTC) | temp C | wind direction | speed KPH | gust KPH | rain 1hr cm | rain 24hr cm | rain mn cm | humidity % | barometer mb |
| 20260507110905 | 21 | 0 | 0.0 | 0.0 | 0.00 | 0.38 | 0.33 | 61 | 1016.0 |
| 20260507110005 | 20 | 0 | 0.0 | 0.0 | 0.00 | 0.38 | 0.33 | 60 | 1016.1 |
| 20260507105405 | 20 | 0 | 0.0 | 1.6 | 0.00 | 0.38 | 0.33 | 60 | 1016.2 |
| 20260507104505 | 20 | 65 | 1.6 | 4.8 | 0.00 | 0.38 | 0.33 | 60 | 1016.3 |
| 20260507103605 | 22 | 56 | 1.6 | 4.8 | 0.00 | 0.38 | 0.33 | 51 | 1016.3 |
| 20260507102705 | 23 | 85 | 0.0 | 3.2 | 0.00 | 0.38 | 0.33 | 52 | 1016.3 |
| 20260507101826 | 22 | 90 | 0.0 | 3.2 | 0.00 | 0.38 | 0.33 | 57 | 1016.5 |
| 20260507100926 | 21 | 0 | 0.0 | 0.0 | 0.00 | 0.38 | 0.33 | 63 | 1016.4 |
| 20260507100005 | 20 | 0 | 0.0 | 0.0 | 0.00 | 0.38 | 0.33 | 65 | 1016.3 |
| 20260507095405 | 20 | 0 | 0.0 | 0.0 | 0.00 | 0.38 | 0.33 | 65 | 1016.4 |
| 20260507094505 | 20 | 169 | 0.0 | 3.2 | 0.00 | 0.38 | 0.33 | 61 | 1016.3 |
| 20260507093605 | 22 | 90 | 0.0 | 3.2 | 0.00 | 0.38 | 0.33 | 55 | 1016.3 |
| 20260507092705 | 23 | 0 | 0.0 | 0.0 | 0.00 | 0.38 | 0.33 | 61 | 1016.2 |
| 20260507091804 | 20 | 90 | 0.0 | 3.2 | 0.00 | 0.38 | 0.33 | 66 | 1016.3 |
| 20260507090904 | 19 | 77 | 0.0 | 3.2 | 0.00 | 0.38 | 0.33 | 68 | 1016.2 |
| 20260507090005 | 18 | 90 | 0.0 | 3.2 | 0.00 | 0.38 | 0.33 | 67 | 1016.2 |
| 20260507085405 | 18 | 90 | 0.0 | 3.2 | 0.00 | 0.38 | 0.33 | 68 | 1016.2 |
| 20260507084504 | 18 | 0 | 0.0 | 0.0 | 0.00 | 0.38 | 0.33 | 63 | 1016.3 |
| 20260507083625 | 18 | 0 | 0.0 | 0.0 | 0.00 | 0.38 | 0.33 | 62 | 1016.2 |
| 20260507082705 | 20 | 0 | 0.0 | 0.0 | 0.00 | 0.38 | 0.33 | 56 | 1016.2 |
| 20260507081805 | 22 | 0 | 0.0 | 0.0 | 0.00 | 0.38 | 0.33 | 52 | 1016.1 |
| 20260507080905 | 23 | 0 | 0.0 | 0.0 | 0.00 | 0.38 | 0.33 | 54 | 1016.2 |
| 20260507080025 | 23 | 0 | 0.0 | 1.6 | 0.00 | 0.38 | 0.33 | 56 | 1016.2 |
| 20260507075404 | 23 | 0 | 0.0 | 0.0 | 0.00 | 0.38 | 0.33 | 60 | 1016.1 |
| 20260507074525 | 23 | 0 | 0.0 | 1.6 | 0.00 | 0.38 | 0.33 | 60 | 1016.2 |
| 20260507073625 | 22 | 0 | 0.0 | 0.0 | 0.03 | 0.38 | 0.33 | 63 | 1016.2 |
| 20260507072704 | 22 | 0 | 0.0 | 0.0 | 0.03 | 0.38 | 0.33 | 64 | 1016.1 |
| 20260507071805 | 22 | 0 | 0.0 | 0.0 | 0.03 | 0.38 | 0.33 | 72 | 1016.1 |
| 20260507070904 | 20 | 0 | 0.0 | 0.0 | 0.03 | 0.38 | 0.33 | 93 | 1016.1 |
| 20260507070009 | 18 | 90 | 0.0 | 3.2 | 0.03 | 0.38 | 0.33 | 99 | 1016.0 |
| 20260507065404 | 18 | 90 | 0.0 | 3.2 | 0.03 | 0.38 | 0.33 | 99 | 1015.9 |
| 20260507064505 | 16 | 0 | 0.0 | 1.6 | 0.03 | 0.38 | 0.33 | 99 | 1015.8 |
| 20260507063605 | 13 | 0 | 0.0 | 0.0 | 0.00 | 0.36 | 0.30 | 99 | 1015.8 |
| 20260507062704 | 13 | 0 | 0.0 | 0.0 | 0.00 | 0.36 | 0.30 | 99 | 1015.8 |
| 20260507061825 | 12 | 0 | 0.0 | 0.0 | 0.00 | 0.36 | 0.30 | 99 | 1015.7 |
| 20260507060904 | 12 | 0 | 0.0 | 0.0 | 0.00 | 0.38 | 0.30 | 99 | 1015.8 |
| 20260507060004 | 12 | 0 | 0.0 | 0.0 | 0.00 | 0.38 | 0.30 | 99 | 1015.6 |
| 20260507055404 | 12 | 0 | 0.0 | 0.0 | 0.00 | 0.38 | 0.30 | 99 | 1015.8 |
| 20260507054504 | 11 | 0 | 0.0 | 0.0 | 0.00 | 0.38 | 0.30 | 99 | 1015.7 |
| 20260507053625 | 11 | 0 | 0.0 | 0.0 | 0.00 | 0.38 | 0.30 | 99 | 1015.6 |
| 20260507052704 | 10 | 0 | 0.0 | 0.0 | 0.00 | 0.38 | 0.30 | 99 | 1015.4 |
| 20260507051804 | 10 | 0 | 0.0 | 0.0 | 0.00 | 0.38 | 0.30 | 99 | 1015.2 |
| 20260507050904 | 10 | 0 | 0.0 | 0.0 | 0.00 | 0.38 | 0.30 | 99 | 1015.2 |
| 20260507050004 | 10 | 0 | 0.0 | 0.0 | 0.00 | 0.38 | 0.30 | 99 | 1015.3 |
| 20260507045404 | 9 | 0 | 0.0 | 0.0 | 0.00 | 0.38 | 0.30 | 99 | 1015.2 |
| 20260507044504 | 9 | 0 | 0.0 | 0.0 | 0.00 | 0.38 | 0.30 | 99 | 1015.2 |
| 20260507043625 | 9 | 0 | 0.0 | 0.0 | 0.00 | 0.38 | 0.30 | 99 | 1015.1 |
| 20260507042725 | 9 | 0 | 0.0 | 0.0 | 0.00 | 0.38 | 0.30 | 99 | 1015.0 |
| 20260507041804 | 9 | 0 | 0.0 | 0.0 | 0.00 | 0.38 | 0.30 | 99 | 1015.0 |
| 20260507040904 | 9 | 0 | 0.0 | 0.0 | 0.00 | 0.38 | 0.30 | 99 | 1014.9 |
| 20260507040004 | 10 | 0 | 0.0 | 0.0 | 0.03 | 0.38 | 0.30 | 99 | 1014.8 |
| 20260507035404 | 10 | 0 | 0.0 | 0.0 | 0.03 | 0.38 | 0.30 | 99 | 1014.7 |
| 20260507034504 | 10 | 0 | 0.0 | 0.0 | 0.10 | 0.38 | 0.30 | 99 | 1014.8 |
| 20260507033604 | 10 | 0 | 0.0 | 0.0 | 0.23 | 0.38 | 0.30 | 99 | 1014.9 |
| 20260507032704 | 10 | 0 | 0.0 | 0.0 | 0.30 | 0.38 | 0.30 | 99 | 1014.9 |
| 20260507031804 | 10 | 0 | 0.0 | 1.6 | 0.30 | 0.38 | 0.30 | 99 | 1014.8 |
| 20260507030904 | 10 | 0 | 0.0 | 1.6 | 0.30 | 0.38 | 0.30 | 99 | 1014.9 |
| 20260507030004 | 11 | 0 | 0.0 | 1.6 | 0.28 | 0.36 | 0.28 | 99 | 1014.9 |
| 20260507025425 | 11 | 0 | 0.0 | 1.6 | 0.28 | 0.36 | 0.28 | 99 | 1014.9 |
| 20260507024504 | 11 | 0 | 0.0 | 1.6 | 0.20 | 0.30 | 0.20 | 99 | 1014.9 |
| 20260507023604 | 11 | 0 | 0.0 | 0.0 | 0.05 | 0.15 | 0.05 | 99 | 1014.9 |
| 20260507022704 | 11 | 0 | 0.0 | 0.0 | 0.00 | 0.10 | 0.00 | 99 | 1014.9 |
| 20260507021804 | 11 | 0 | 0.0 | 0.0 | 0.00 | 0.10 | 0.00 | 99 | 1014.9 |
| 20260507020904 | 11 | 0 | 0.0 | 0.0 | 0.00 | 0.10 | 0.00 | 99 | 1014.9 |
| 20260507020025 | 11 | 0 | 0.0 | 0.0 | 0.00 | 0.10 | 0.00 | 99 | 1014.8 |
| 20260507015403 | 11 | 0 | 0.0 | 0.0 | 0.00 | 0.13 | 0.00 | 99 | 1015.0 |
| 20260507014503 | 11 | 0 | 0.0 | 0.0 | 0.00 | 0.15 | 0.00 | 99 | 1014.7 |
| 20260507013604 | 11 | 0 | 0.0 | 0.0 | 0.00 | 0.18 | 0.00 | 99 | 1014.7 |
| 20260507012703 | 11 | 0 | 0.0 | 0.0 | 0.00 | 0.20 | 0.00 | 99 | 1014.8 |
| 20260507011803 | 12 | 0 | 0.0 | 0.0 | 0.00 | 0.33 | 0.00 | 99 | 1014.8 |
| 20260507010903 | 12 | 0 | 0.0 | 1.6 | 0.00 | 0.33 | 0.00 | 99 | 1014.8 |
| 20260507010003 | 12 | 0 | 0.0 | 1.6 | 0.00 | 0.33 | 0.00 | 99 | 1014.8 |
| 20260507005403 | 12 | 0 | 0.0 | 0.0 | 0.00 | 0.33 | 0.00 | 99 | 1014.8 |
| 20260507004503 | 12 | 58 | 0.0 | 3.2 | 0.00 | 0.33 | 0.00 | 99 | 1014.8 |
| 20260507003603 | 13 | 0 | 0.0 | 0.0 | 0.00 | 0.33 | 0.00 | 99 | 1014.6 |
| 20260507002703 | 13 | 0 | 0.0 | 0.0 | 0.00 | 0.33 | 0.00 | 99 | 1014.6 |
| 20260507001803 | 13 | 0 | 0.0 | 0.0 | 0.00 | 0.33 | 0.00 | 99 | 1014.7 |
| 20260507000924 | 13 | 0 | 0.0 | 0.0 | 0.00 | 0.33 | 0.00 | 99 | 1014.7 |
| 20260507000003 | 13 | 0 | 0.0 | 0.0 | 0.00 | 0.33 | 0.00 | 99 | 1014.8 |
| 20260506235403 | 13 | 0 | 0.0 | 0.0 | 0.00 | 0.33 | 0.00 | 99 | 1014.9 |
| 20260506234503 | 13 | 0 | 0.0 | 0.0 | 0.00 | 0.33 | 0.00 | 99 | 1014.9 |
| 20260506233607 | 13 | 0 | 0.0 | 0.0 | 0.00 | 0.33 | 0.00 | 99 | 1014.8 |